Hourly Data Report for October 08, 2013

All times are specified in Local Standard Time (LST). Add 1 hour to adjust for Daylight Saving Time where and when it is observed.

ST LEONARD CS
NEW BRUNSWICK

47°09'28.050" N
67°49'55.014" W
245.00 m
810I001
71019
WIY

Download Data

Hourly Data (October 2013)
Hourly Data Report for October 8, 2013
Temp Definition
°C
Dew Point Temp Definition
°C
Rel Hum Definition
%
Wind Dir Definition
10's deg

Wind Spd Definition
km/h
Visibility Definition
km
Stn Press Definition
kPa
Hmdx Definition


Wind Chill Definition


Weather Definition


TIME
00:00 13.7 12.8 94 28 35   97.65     LegendNANA
01:00 12.8 12.1 96 27 17   97.78     LegendNANA
02:00 11.3 10.6 95 25 7   97.80     LegendNANA
03:00 11.1 10.4 95 21 9   97.85     LegendNANA
04:00 10.7 9.8 94 20 9   97.85     LegendNANA
05:00 9.6 8.8 95 18 13   97.89     LegendNANA
06:00 9.8 8.5 92 20 11   97.96     LegendNANA
07:00 9.6 8.0 90 22 11   98.06     LegendNANA
08:00 10.1 6.9 80 26 26   98.22     LegendNANA
09:00 10.0 4.0 66 29 35   98.41     LegendNANA
10:00 10.6 2.5 57 29 33   98.55     LegendNANA
11:00 11.2 2.1 53 28 32   98.65     LegendNANA
12:00 11.5 1.6 51 28 33   98.76     LegendNANA
13:00 12.0 1.5 49 28 28   98.83     LegendNANA
14:00 11.4 0.7 48 30 24   98.90     LegendNANA
15:00 12.2 0.8 46 29 30   99.01     LegendNANA
16:00 11.7 0.2 45 27 26   99.09     LegendNANA
17:00 11.2 -0.5 44 29 22   99.20     LegendNANA
18:00 9.3 0.5 54 29 7   99.29     LegendNANA
19:00 7.2 0.8 64 27 7   99.36     LegendNANA
20:00 6.5 1.2 69 27 9   99.47     LegendNANA
21:00 6.1 1.4 72 28 11   99.57     LegendNANA
22:00 5.1 1.1 75 32 7   99.62     LegendNANA
23:00 4.8 1.1 77 30 13   99.63     LegendNANA

Notes on Data Quality.

Legend

  • E = Estimated
  • M = Missing
  • NA = Not Available
  • ‡ = Partner data that is not subject to review by the National Climate Archives
Date modified: